Starlink 31237

operational
NORAD ID: 58855 Int'l Des: 2024-019 Owner: SPXS Country: US Constellation: starlink
LEOCIRCULAR

About Starlink 31237

Description loading...

Live Position

Loading 3D Globe...

Upcoming Passes

Altitude History

Altitude vs Time

uPlot chart will show altitude changes over time

Two-Line Element Set

1 58855U 24019C 25260.07497607 -.00000861 00000-0 -21800-4 0 9994
2 58855 43.0008 149.1389 0000941 250.5051 109.5700 15.27567490 92532
Epoch: Sep 17, 2025 • Age: 20 hours

Current Status

Altitude 495.4 km
Velocity 7.62 km/s
Sub-Earth Point -42.14°S, 104.69°E
Launch Date Jan 29, 2024
Age 1.6 years
Type internet

Technical Details

Classification Payload
Mass 730.00 kg
Dry Mass 700.00 kg
Total Mass 730.00 kg
Length 0.30 m
Diameter 4.10 m
Span 29.00 m
Shape Box + pan
Manufacturer SPXS
Bus Type Starlink V2M
Phase Status In Orbit
Owner/State SPXS/US

Large Constellations

Loading constellations...